Weather History for Middlesboro, KY

Change the Weather History Date:

Wednesday, March 20, 2013

  Actual Average (KLOZ) Record (KLOZ)
Temperature  
Mean Temperature 39 °F 48 °F  
Max Temperature 52 °F 60 °F 85 °F (2012)
Min Temperature 26 °F 37 °F 17 °F (1965)
Degree Days  
Heating Degree Days 26 17  
Month to date heating degree days 385  
Since 1 July heating degree days 3661  
Cooling Degree Days 0 0  
Month to date cooling degree days 0  
Year to date cooling degree days 0  
Moisture  
Dew Point 19 °F    
Average Humidity 54    
Maximum Humidity 88    
Minimum Humidity 21    
Precipitation  
Precipitation 0.00 in 0.13 in 1.47 in (1980)
Month to date precipitation 2.61  
Year to date precipitation 9.86  
Sea Level Pressure  
Sea Level Pressure 30.03 in    
Wind  
Wind Speed 3 mph (WNW)    
Max Wind Speed 17 mph    
Max Gust Speed 31 mph    
Visibility 10 miles    
Events Rain , Snow    
T = Trace of Precipitation, MM = Missing Value Source: NWS Daily Summary

Daily Weather History Graph

Daily Weather History Graph

Search for Another Location

Airport:

Trip Planner

Search our weather history database for the weather conditions in past years. The results will help you decide how hot, cold, wet, or windy it might be!

Date:

Astronomy

Mar. 20, 2013 Rise Set
Actual Time 6:38 AM CDT 6:46 PM CDT
Civil Twilight 6:12 AM CDT 7:12 PM CDT
Nautical Twilight 5:42 AM CDT 7:42 PM CDT
Astronomical Twilight 5:11 AM CDT 8:13 PM CDT
Moon 12:29 PM CDT (3/20) 2:08 AM CDT (3/20)
Length of Visible Light 13h 00m
Length of Day
12h 08m
First Quarter, 59% of the Moon is Illuminated
Mar 20
First Quarter
Mar 27
Full
Apr 2
Last Quarter
Apr 10
New
Apr 18
First Quarter

Hourly Weather History & Observations

Time (CDT) Temp. Windchill Dew Point Humidity Pressure Visibility Wind Dir Wind Speed Gust Speed Precip Events Conditions
12:15 AM 33.8 °F - 25.5 °F 72% 30.14 in 10.0 mi Calm Calm - N/A   Clear
12:35 AM 32.9 °F - 25.0 °F 73% 30.14 in 10.0 mi Calm Calm - N/A   Clear
12:55 AM 32.7 °F - 24.6 °F 72% 30.14 in 10.0 mi Calm Calm - N/A   Clear
1:15 AM 32.5 °F - 24.6 °F 73% 30.13 in 10.0 mi Calm Calm - N/A   Clear
1:35 AM 32.0 °F - 23.7 °F 71% 30.13 in 10.0 mi Calm Calm - N/A   Scattered Clouds
1:55 AM 31.6 °F - 23.9 °F 73% 30.13 in 10.0 mi Calm Calm - N/A   Clear
2:15 AM 30.7 °F - 23.9 °F 76% 30.13 in 10.0 mi Calm Calm - N/A   Clear
2:35 AM 30.9 °F - 24.4 °F 77% 30.13 in 10.0 mi Calm Calm - N/A   Clear
2:55 AM 30.4 °F - 23.7 °F 76% 30.13 in 10.0 mi Calm Calm - N/A   Clear
3:15 AM 29.8 °F - 24.8 °F 81% 30.12 in 10.0 mi Calm Calm - N/A   Clear
3:35 AM 29.5 °F - 24.6 °F 82% 30.12 in 10.0 mi Calm Calm - N/A   Clear
3:55 AM 29.1 °F - 24.4 °F 83% 30.12 in 10.0 mi Calm Calm - N/A   Clear
4:15 AM 28.0 °F - 23.4 °F 83% 30.11 in 10.0 mi Calm Calm - N/A   Clear
4:35 AM 28.2 °F - 23.5 °F 83% 30.11 in 10.0 mi Calm Calm - N/A   Clear
4:55 AM 27.5 °F - 22.8 °F 83% 30.11 in 10.0 mi Calm Calm - N/A   Clear
5:15 AM 27.5 °F - 22.8 °F 83% 30.11 in 10.0 mi Calm Calm - N/A   Clear
5:35 AM 27.3 °F - 23.0 °F 84% 30.12 in 10.0 mi Calm Calm - N/A   Clear
5:55 AM 26.6 °F - 22.8 °F 86% 30.12 in 10.0 mi Calm Calm - N/A   Clear
6:15 AM 26.4 °F - 22.6 °F 86% 30.12 in 10.0 mi Calm Calm - N/A   Clear
6:35 AM 26.2 °F - 23.0 °F 88% 30.12 in 10.0 mi Calm Calm - N/A   Clear
6:55 AM 26.4 °F - 23.0 °F 87% 30.13 in 10.0 mi Calm Calm - N/A   Clear
7:15 AM 26.2 °F - 23.0 °F 88% 30.13 in 10.0 mi Calm Calm - N/A   Clear
7:35 AM 27.3 °F - 23.5 °F 86% 30.12 in 10.0 mi Calm Calm - N/A   Clear
7:55 AM 28.9 °F - 23.0 °F 78% 30.13 in 10.0 mi Calm Calm - N/A   Clear
8:15 AM 30.6 °F - 22.5 °F 72% 30.13 in 10.0 mi Calm Calm - N/A   Clear
8:35 AM 32.7 °F - 22.1 °F 65% 30.13 in 10.0 mi Calm Calm - N/A   Clear
8:55 AM 34.3 °F - 21.4 °F 59% 30.12 in 10.0 mi Calm Calm - N/A   Clear
9:15 AM 37.9 °F - 22.3 °F 53% 30.11 in 10.0 mi Calm Calm - N/A   Clear
9:35 AM 40.8 °F - 18.7 °F 41% 30.10 in 10.0 mi Calm Calm - N/A   Clear
9:55 AM 42.4 °F - 15.3 °F 33% 30.09 in 10.0 mi Calm Calm - N/A   Clear
10:15 AM 45.0 °F 43.5 °F 13.1 °F 28% 30.09 in 10.0 mi WNW 3.5 mph - N/A   Clear
10:35 AM 46.4 °F 41.5 °F 8.4 °F 21% 30.08 in 10.0 mi WNW 10.4 mph 17.3 mph N/A   Clear
10:55 AM 46.4 °F 42.9 °F 9.3 °F 22% 30.08 in 10.0 mi WNW 6.9 mph - N/A   Clear
11:15 AM 46.8 °F - 8.8 °F 21% 30.07 in 10.0 mi WNW 6.9 mph - N/A   Clear
11:35 AM 48.9 °F - 11.8 °F 23% 30.06 in 10.0 mi WNW 11.5 mph 16.1 mph N/A   Clear
11:55 AM 49.1 °F - 11.7 °F 22% 30.05 in 10.0 mi SW 8.1 mph 17.3 mph N/A   Clear
12:15 PM 50.2 °F - 12.7 °F 22% 30.04 in 10.0 mi West 11.5 mph 21.9 mph N/A   Clear
12:35 PM 50.4 °F - 13.6 °F 23% 30.02 in 10.0 mi WNW 13.8 mph 19.6 mph N/A   Clear
12:55 PM 51.4 °F - 15.4 °F 24% 30.01 in 10.0 mi WNW 12.7 mph 20.7 mph N/A   Clear
1:15 PM 51.8 °F - 14.4 °F 23% 30.00 in 10.0 mi West 6.9 mph 23.0 mph N/A   Scattered Clouds
1:35 PM 52.0 °F - 16.2 °F 24% 29.99 in 10.0 mi WNW 12.7 mph 19.6 mph N/A   Scattered Clouds
1:55 PM 52.5 °F - 17.2 °F 25% 29.97 in 10.0 mi NW 9.2 mph 24.2 mph N/A   Mostly Cloudy
2:15 PM 50.9 °F - 14.7 °F 24% 29.96 in 10.0 mi NNW 17.3 mph 23.0 mph N/A   Mostly Cloudy
2:35 PM 51.8 °F - 15.3 °F 23% 29.95 in 10.0 mi WNW 15.0 mph 21.9 mph N/A   Scattered Clouds
2:55 PM 50.9 °F - 14.9 °F 24% 29.94 in 10.0 mi WNW 11.5 mph 18.4 mph N/A   Scattered Clouds
3:15 PM 52.0 °F - 14.7 °F 23% 29.92 in 10.0 mi West 9.2 mph 20.7 mph N/A   Scattered Clouds
3:35 PM 51.1 °F - 14.0 °F 23% 29.91 in 10.0 mi WSW 9.2 mph 17.3 mph N/A   Scattered Clouds
3:55 PM 50.9 °F - 15.4 °F 24% 29.90 in 10.0 mi WNW 6.9 mph - N/A   Mostly Cloudy
4:15 PM 50.0 °F - 16.2 °F 26% 29.88 in 10.0 mi WNW 13.8 mph - N/A   Overcast
4:35 PM 49.1 °F - 16.0 °F 27% 29.88 in 10.0 mi West 6.9 mph - N/A   Overcast
4:55 PM 48.6 °F - 17.1 °F 29% 29.88 in 10.0 mi West 10.4 mph 21.9 mph N/A   Overcast
5:15 PM 46.8 °F - 20.1 °F 35% 29.90 in 10.0 mi NW 10.4 mph 21.9 mph N/A   Overcast
5:35 PM 46.4 °F 42.9 °F 20.5 °F 36% 29.89 in 10.0 mi WNW 6.9 mph 21.9 mph N/A   Overcast
5:55 PM 43.3 °F 36.8 °F 27.3 °F 53% 29.93 in 10.0 mi WNW 12.7 mph 23.0 mph N/A Rain Light Rain
6:15 PM 41.2 °F 36.0 °F 28.2 °F 60% 29.94 in 10.0 mi West 8.1 mph 20.7 mph N/A Rain Light Rain
6:35 PM 41.9 °F 34.3 °F 23.7 °F 49% 29.93 in 10.0 mi WNW 15.0 mph 20.7 mph N/A   Overcast
6:55 PM 39.6 °F 30.6 °F 24.6 °F 55% 29.95 in 10.0 mi NW 17.3 mph 24.2 mph N/A   Overcast
7:15 PM 37.4 °F 28.5 °F 25.5 °F 62% 29.97 in 10.0 mi NW 15.0 mph 31.1 mph N/A   Overcast
7:35 PM 35.6 °F 30.7 °F 27.7 °F 73% 29.98 in 10.0 mi NW 5.8 mph - N/A Snow Light Snow
7:55 PM 34.7 °F - 28.8 °F 79% 29.97 in 10.0 mi Calm Calm - N/A Snow Light Snow
8:15 PM 34.9 °F - 27.3 °F 74% 29.97 in 10.0 mi Calm Calm - N/A   Overcast
8:35 PM 35.2 °F 26.2 °F 23.9 °F 63% 29.96 in 10.0 mi WNW 13.8 mph 23.0 mph N/A   Scattered Clouds
8:55 PM 35.2 °F 29.5 °F 19.6 °F 53% 29.97 in 10.0 mi NW 6.9 mph - N/A   Clear
9:15 PM 34.7 °F 26.4 °F 17.6 °F 50% 29.97 in 10.0 mi NW 11.5 mph 18.4 mph N/A   Clear
9:35 PM 33.8 °F 26.4 °F 12.2 °F 41% 29.98 in 10.0 mi NW 9.2 mph 24.2 mph N/A   Clear
9:55 PM 33.1 °F 26.1 °F 14.0 °F 46% 29.97 in 10.0 mi NW 8.1 mph 18.4 mph N/A   Clear
10:15 PM 32.5 °F 24.8 °F 13.6 °F 46% 29.98 in 10.0 mi NW 9.2 mph 17.3 mph N/A   Clear
10:35 PM 32.0 °F 24.2 °F 13.6 °F 47% 29.97 in 10.0 mi WNW 9.2 mph - N/A   Clear
10:55 PM 31.8 °F 22.3 °F 12.9 °F 46% 29.98 in 10.0 mi NW 12.7 mph 16.1 mph N/A   Clear
11:15 PM 30.7 °F 24.9 °F 12.7 °F 47% 29.98 in 10.0 mi NNW 5.8 mph - N/A   Clear
11:35 PM 30.0 °F 21.7 °F 12.0 °F 47% 29.99 in 10.0 mi NW 9.2 mph - N/A   Clear
11:55 PM 29.3 °F 23.2 °F 11.5 °F 47% 29.98 in 10.0 mi WNW 5.8 mph - N/A   Clear